SCP
0 0 0 0 0 0 0 0 0 0 0 0 0 0 0 0 0 0 -0 0 0 0 0 0 0 0 0 0 0 0 0 0 0 0 0 0 0 0 0 0 0 0 0
0 0 0 0 0 0 0 0 0 0 0 0 0 0 0 0 0 0 0 0 0 0 0 0 0 0 0 0 0 0 0 0 0 0 0 0 0 0 0 0 0 0 0
0 0 0 0 0 0 0 0 0 -0 0 0 0 0 0 0 0 0 0 0 0 0 0 0 0 0 0 0 0 0 0 0 0 0 0 0 0 0 0 0 0 0 0
1 0 -0 -0 0 0 0 0 0 -0 -0 0 0 0 0 0 0 0 0 0 0 0 0 0 0 0 0 0 0 0 0 0 0 0 0 0 0 0 0 0 0 0 0
0 0 0 0 0 0 0 0 0 0 0 0 0 0 0 0 0 0 0 0 0 0 0 0 0 0 0 0 0 0 0 0 0 0 0 0 0 0 0 0 0 0 0
0 0 0 -0 -0 0 0 0 0 0 0 0 0 0 0 0 0 0 0 0 0 0 0 0 0 0 0 0 0 0 0 0 0 0 0 0 0 0 0 0 0 0 0
-0 -0 0 -0 0 0 0 0 0 0 0 0 0 0 -0 -0 0 0 0 0 0 0 0 0 0 0 0 0 0 0 0 0 0 0 0 0 0 0 0 0 0 0 0
0 0 -0 -0 0 0 1 0 1 0 0 0 0 0 0 0 0 0 0 0 0 0 0 0 0 0 0 0 0 0 0 0 0 0 0 0 0 0 0 0 0 0 0
0 0 0 0 0 1 1 0 0 1 0 0 1 0 0 0 0 0 0 0 0 0 0 0 0 0 0 0 0 0 0 0 0 0 0 0 0 0 0 0 0 0 0
-0 -0 0 0 0 0 0 0 1 1 1 0 0 0 0 0 0 0 0 0 0 0 0 0 0 0 0 0 0 0 0 0 0 0 0 0 0 0 0 0 0 0 0
0 -0 -0 0 -0 0 0 0 1 1 1 1 1 0 0 0 0 0 0 0 0 0 0 0 0 0 0 0 0 0 0 0 0 0 0 0 0 0 0 0 0 0 0
0 0 0 0 0 0 0 1 0 0 1 1 1 1 1 1 0 0 0 0 0 0 0 0 0 0 0 0 0 0 0 0 0 0 0 0 0 0 0 0 0 0 0
0 0 1 1 0 0 0 0 0 0 1 1 1 1 1 1 1 0 0 0 0 0 0 0 0 0 0 0 0 0 0 0 0 0 0 0 0 0 0 0 0 0 0
0 0 0 0 0 0 0 0 0 0 1 1 2 1 1 0 1 1 0 0 0 0 0 0 0 0 0 0 0 0 0 0 0 0 0 0 0 0 0 0 0 0 0
0 0 0 0 0 0 0 0 0 0 1 1 1 1 1 -0 0 0 0 0 0 0 0 0 0 0 0 0 0 0 0 0 0 0 0 0 0 0 0 0 0 0 0
0 0 0 0 0 0 0 0 0 0 0 0 0 0 0 0 0 -0 -0 -0 0 0 0 0 0 0 0 0 0 0 0 0 0 0 0 0 0 0 0 0 0 0 0
0 0 0 0 0 0 0 0 0 0 0 0 0 0 0 0 0 0 0 -0 0 0 0 0 0 0 0 0 0 0 0 0 0 0 0 0 0 0 0 0 0 0 0
0 0 0 0 0 0 0 0 0 0 0 0 0 0 0 0 0 0 0 0 0 0 0 0 0 0 0 0 0 0 0 0 0 0 0 0 0 0 0 0 0 0 0
0 0 0 0 0 0 0 0 0 0 0 0 0 0 0 0 0 0 0 0 0 0 0 0 0 0 0 0 0 0 0 0 0 0 0 0 0 0 0 0 0 0 0
0 0 0 0 0 0 0 0 0 0 0 0 0 0 0 0 0 0 0 0 0 0 0 0 0 0 0 0 0 0 0 0 0 0 0 0 0 0 0 0 0 0 0
0 0 0 0 0 0 0 0 0 0 0 0 0 0 0 0 0 0 0 0 0 0 0 0 0 0 0 0 0 0 0 0 0 0 0 0 0 0 0 0 0 0 0
0 0 0 0 0 0 0 0 0 0 0 0 0 0 0 0 0 0 0 0 0 -0 0 0 0 0 0 0 0 0 0 0 0 0 0 0 0 0 0 0 0 0 0
0 0 0 0 0 0 0 0 0 0 0 0 0 0 0 0 -0 0 0 0 -0 -0 0 0 0 0 0 0 0 0 0 0 0 0 0 0 0 0 0 0 0 0 0
0 0 0 0 0 0 0 0 0 0 0 0 0 0 0 0 0 0 0 0 0 -0 0 0 0 0 0 0 0 0 0 0 0 0 0 0 0 0 0 0 0 0 0
0 0 0 0 0 0 0 0 0 0 0 0 0 -0 0 0 0 0 0 0 0 -0 0 0 0 0 0 0 0 0 0 0 0 0 0 0 0 0 0 0 0 0 0
-0 0 0 0 0 0 0 0 0 0 -0 0 0 0 0 0 0 0 0 0 0 0 0 0 0 0 0 0 0 0 0 0 0 0 0 0 0 0 0 0 0 0 0
Wind_Speed_500mb
48 52 56 48 46 47 30 34 30 27 30 28 30 34 42 39 40 41 35 29 33 27 22 25 25 24 20 21 17 14 14 17 20 19 17 12 12 13 12 15 14 19 26
32 42 53 55 53 38 35 31 21 23 23 33 36 40 43 42 42 41 37 33 38 32 27 28 32 27 20 26 24 22 21 23 28 25 22 18 18 19 21 24 26 27 30
27 23 34 46 50 48 38 32 30 33 16 30 39 43 47 45 45 42 37 35 40 34 31 30 29 28 27 24 25 27 28 27 28 31 30 29 30 31 32 32 32 31 31
29 24 29 39 51 54 44 33 41 34 43 30 42 43 48 50 46 44 43 41 41 38 35 29 33 36 34 29 31 30 30 32 34 35 36 35 35 34 34 32 33 34 37
24 20 22 49 47 50 49 42 41 39 38 48 42 51 46 52 48 45 47 47 45 44 43 40 42 37 35 33 36 35 35 37 35 37 43 41 38 36 35 36 38 35 35
7 26 44 49 45 42 46 51 43 45 42 44 52 50 44 54 51 51 47 49 50 50 48 47 44 41 40 35 33 33 32 31 35 38 37 38 38 35 33 31 33 31 29
19 21 27 35 51 52 47 46 49 49 47 46 52 58 69 57 50 52 51 46 49 52 52 49 48 46 40 35 33 36 37 33 39 41 41 38 36 32 33 33 32 34 36
27 24 29 31 33 43 52 51 49 49 52 52 51 55 61 61 49 53 54 55 47 52 56 54 54 51 43 39 36 37 38 41 40 38 39 40 39 35 34 34 33 36 38
37 32 31 34 35 38 41 53 58 54 53 55 54 54 60 67 59 54 52 50 52 54 53 53 54 54 48 45 44 44 43 45 42 40 36 33 33 32 29 32 35 37 40
60 48 36 35 37 41 45 49 51 56 62 58 59 61 56 57 64 62 56 55 58 60 60 60 59 55 47 45 48 48 49 46 35 35 33 30 28 30 35 43 45 43 40
62 66 51 40 38 43 45 47 44 52 58 65 65 65 62 58 54 60 60 61 61 60 61 62 58 53 47 45 45 48 52 39 33 33 29 29 31 36 41 41 40 39 40
52 53 55 43 33 37 42 44 42 43 48 56 61 64 63 63 60 56 60 64 60 61 61 57 54 49 46 48 51 46 41 38 38 38 36 35 37 37 31 26 19 18 20
56 54 48 47 40 36 39 38 39 37 39 47 55 70 62 59 65 63 59 60 62 63 59 54 48 46 46 48 49 49 46 44 46 46 43 40 37 31 25 23 22 21 22
57 56 51 47 48 42 40 37 36 34 38 39 51 46 25 40 52 62 65 63 66 66 65 59 56 54 51 49 46 43 44 46 48 44 42 38 33 31 28 28 30 32 33
61 57 51 44 48 48 45 40 39 37 36 42 53 56 59 60 32 41 57 64 64 67 65 65 64 61 54 52 47 43 42 42 42 40 40 35 33 36 35 33 34 35 33
68 64 55 49 46 49 46 43 46 38 32 41 45 44 53 65 72 64 24 45 69 60 60 64 70 64 57 54 51 48 46 42 39 38 38 38 41 41 37 35 38 36 32
63 63 58 52 47 47 46 43 48 41 36 30 42 54 48 73 64 79 83 56 57 69 59 67 65 69 60 57 52 53 50 43 39 40 41 42 39 35 34 38 32 25 24
58 54 51 51 48 47 46 46 48 45 41 38 36 45 56 57 50 44 41 58 66 80 73 66 72 69 61 59 52 53 49 47 48 42 41 38 36 35 38 36 28 28 25
47 50 51 53 54 51 48 48 51 48 46 43 43 40 46 71 73 64 67 78 92 75 96 75 75 68 56 52 50 51 50 47 45 43 40 39 36 37 37 32 27 25 25
49 54 57 61 58 56 51 52 55 54 51 46 47 33 28 44 61 66 59 68 90 101 92 96 77 64 51 48 49 51 48 45 44 45 43 41 40 39 34 31 28 23 24
50 57 61 64 64 57 51 51 55 51 51 53 62 69 62 56 54 61 64 75 64 73 81 77 76 64 55 55 52 49 46 44 42 42 42 42 42 39 35 33 29 25 25
41 41 36 42 55 53 48 47 46 43 39 50 54 60 69 75 69 60 63 66 68 55 52 61 63 59 58 55 53 50 48 43 42 43 43 43 40 36 35 34 31 30 26
39 35 39 40 46 48 48 48 45 38 30 30 40 45 50 54 67 65 56 51 57 58 58 53 52 52 54 52 50 47 45 40 38 39 42 41 37 34 33 33 31 30 26
42 43 41 42 43 45 49 50 46 41 37 41 43 45 46 52 57 61 57 47 43 55 63 57 57 48 55 52 48 44 42 36 38 40 38 37 35 34 32 29 25 28 30
42 36 41 45 46 45 47 46 45 42 42 45 42 38 42 47 48 60 55 47 42 38 53 60 59 56 51 47 46 45 40 35 31 33 35 35 33 30 28 27 29 31 32
28 28 28 33 39 41 38 39 39 40 45 35 36 40 49 49 51 54 64 53 51 37 52 60 57 49 46 45 41 38 37 34 35 30 30 33 32 32 33 33 35 35 32
Wind_Direction_500mb
262 252 254 255 268 272 272 264 270 273 245 223 225 222 211 213 219 222 223 224 217 221 230 223 214 215 229 232 246 250 246 264 272 285 302 300 304 321 322 325 312 269 271
268 268 266 264 261 273 274 267 263 254 241 234 229 219 214 217 218 221 222 226 216 224 233 231 228 227 237 235 244 257 266 269 270 272 279 290 297 298 296 294 294 287 279
281 303 291 287 269 268 275 274 261 235 275 237 230 227 220 212 220 228 226 222 222 232 233 241 235 236 242 246 250 257 263 273 270 274 282 286 292 295 291 286 283 281 280
247 299 283 276 281 266 270 269 264 253 240 246 233 228 227 224 229 234 232 229 228 231 228 238 238 246 247 250 258 265 267 270 271 275 281 287 291 296 293 296 291 287 285
257 257 286 280 275 273 263 265 262 257 246 239 240 231 230 228 228 236 232 230 228 231 233 239 241 241 246 257 263 269 276 271 274 273 282 285 286 290 293 293 292 292 292
251 256 271 276 269 272 264 266 265 262 254 241 238 235 226 226 246 237 234 232 230 234 238 244 247 251 259 264 264 267 269 270 270 276 283 282 288 290 290 289 291 293 296
6 352 316 297 274 263 257 255 259 259 257 252 243 236 228 234 240 231 233 236 235 236 241 246 252 252 260 261 264 268 271 269 274 279 279 280 283 285 281 285 285 285 288
338 334 332 330 298 279 263 256 256 257 255 255 252 243 235 231 233 227 235 238 240 241 241 245 252 254 255 256 261 267 267 277 277 275 278 277 277 280 283 284 287 285 284
324 322 329 322 322 312 288 266 255 254 256 249 253 247 238 235 232 229 233 235 238 238 239 242 247 251 254 250 255 262 268 273 274 272 273 270 273 276 277 285 291 288 285
308 313 310 314 314 309 311 296 270 254 251 258 252 251 245 240 237 234 235 242 240 242 245 247 248 250 251 254 254 259 266 276 271 266 266 264 266 272 284 290 289 282 278
290 293 298 291 299 306 304 309 294 261 249 244 248 250 248 245 238 231 231 236 241 244 246 246 247 248 248 255 259 262 268 271 256 258 255 260 267 279 288 289 283 275 269
280 283 285 281 283 292 299 299 302 288 262 255 256 253 251 248 243 238 235 235 239 244 247 247 245 248 249 253 255 262 255 252 247 248 251 262 270 285 288 293 289 284 278
280 278 278 271 274 282 291 293 295 292 269 253 268 263 257 253 248 241 238 239 242 245 247 245 245 244 246 248 250 254 255 244 244 251 256 261 272 272 286 288 285 280 281
276 273 271 268 263 270 280 285 287 283 266 237 231 244 253 277 266 260 246 240 239 242 246 244 245 246 247 246 250 244 242 238 247 252 255 259 257 260 273 283 282 279 278
271 271 270 267 263 264 273 282 280 281 267 241 238 255 236 281 273 285 269 254 249 247 247 249 243 241 241 244 235 236 233 238 245 248 253 252 256 261 271 278 282 280 282
266 266 268 267 263 262 268 279 281 282 271 249 249 246 233 228 244 277 318 294 251 240 241 244 248 242 241 236 233 234 238 241 243 244 246 251 259 263 268 276 284 280 279
267 263 261 264 262 263 265 272 277 279 278 261 240 230 253 239 249 231 292 258 257 237 236 238 243 242 241 236 237 235 236 243 242 244 247 255 256 255 263 276 272 261 267
267 256 252 254 258 258 262 265 273 273 276 272 264 249 247 243 218 215 229 254 245 233 228 235 235 237 237 238 235 233 235 235 236 247 253 246 248 255 266 268 253 254 257
261 255 257 255 253 252 256 258 262 268 270 267 261 255 250 232 237 245 247 252 251 251 241 235 235 229 229 233 231 226 228 230 237 249 246 247 251 258 267 254 249 255 253
264 263 262 253 250 247 249 254 256 264 263 259 253 229 241 244 236 238 240 249 248 255 251 238 227 218 217 220 215 219 223 228 236 237 241 245 250 259 251 244 247 251 243
282 274 267 250 239 238 242 253 259 271 259 249 244 244 254 258 252 243 257 262 247 244 232 218 214 208 211 211 215 223 226 227 234 238 241 245 252 246 239 239 233 236 245
287 282 265 236 225 230 239 255 255 267 264 249 253 253 251 254 255 259 249 259 247 244 231 201 202 204 207 213 221 228 225 229 232 235 241 242 239 233 231 223 226 227 227
289 277 254 235 231 235 243 247 248 247 256 265 266 265 262 253 247 246 248 253 242 228 220 202 202 206 211 217 226 228 227 229 239 242 238 234 229 223 218 220 220 217 218
288 281 264 249 243 239 239 237 239 241 262 281 273 266 260 261 252 237 237 239 241 228 215 209 208 217 212 217 222 220 217 222 227 230 228 224 212 205 211 220 222 212 199
284 275 267 250 239 233 233 234 233 243 269 279 262 250 269 272 257 229 221 220 223 232 224 212 206 207 210 216 215 215 221 218 215 215 209 203 205 207 206 204 194 182 181
276 270 266 247 231 230 228 230 237 259 275 261 247 266 279 258 246 219 215 221 221 223 208 187 189 200 207 203 205 216 213 205 201 202 202 204 205 197 192 186 180 182 186
Wind_Speed_850mb
48 52 56 48 46 47 30 34 30 27 30 28 30 34 42 39 40 41 35 29 33 27 22 25 25 24 20 21 17 14 14 17 20 19 17 12 12 13 12 15 14 19 26
32 42 53 55 53 38 35 31 21 23 23 33 36 40 43 42 42 41 37 33 38 32 27 28 32 27 20 26 24 22 21 23 28 25 22 18 18 19 21 24 26 27 30
27 23 34 46 50 48 38 32 30 33 16 30 39 43 47 45 45 42 37 35 40 34 31 30 29 28 27 24 25 27 28 27 28 31 30 29 30 31 32 32 32 31 31
29 24 29 39 51 54 44 33 41 34 43 30 42 43 48 50 46 44 43 41 41 38 35 29 33 36 34 29 31 30 30 32 34 35 36 35 35 34 34 32 33 34 37
24 20 22 49 47 50 49 42 41 39 38 48 42 51 46 52 48 45 47 47 45 44 43 40 42 37 35 33 36 35 35 37 35 37 43 41 38 36 35 36 38 35 35
7 26 44 49 45 42 46 51 43 45 42 44 52 50 44 54 51 51 47 49 50 50 48 47 44 41 40 35 33 33 32 31 35 38 37 38 38 35 33 31 33 31 29
19 21 27 35 51 52 47 46 49 49 47 46 52 58 69 57 50 52 51 46 49 52 52 49 48 46 40 35 33 36 37 33 39 41 41 38 36 32 33 33 32 34 36
27 24 29 31 33 43 52 51 49 49 52 52 51 55 61 61 49 53 54 55 47 52 56 54 54 51 43 39 36 37 38 41 40 38 39 40 39 35 34 34 33 36 38
37 32 31 34 35 38 41 53 58 54 53 55 54 54 60 67 59 54 52 50 52 54 53 53 54 54 48 45 44 44 43 45 42 40 36 33 33 32 29 32 35 37 40
60 48 36 35 37 41 45 49 51 56 62 58 59 61 56 57 64 62 56 55 58 60 60 60 59 55 47 45 48 48 49 46 35 35 33 30 28 30 35 43 45 43 40
62 66 51 40 38 43 45 47 44 52 58 65 65 65 62 58 54 60 60 61 61 60 61 62 58 53 47 45 45 48 52 39 33 33 29 29 31 36 41 41 40 39 40
52 53 55 43 33 37 42 44 42 43 48 56 61 64 63 63 60 56 60 64 60 61 61 57 54 49 46 48 51 46 41 38 38 38 36 35 37 37 31 26 19 18 20
56 54 48 47 40 36 39 38 39 37 39 47 55 70 62 59 65 63 59 60 62 63 59 54 48 46 46 48 49 49 46 44 46 46 43 40 37 31 25 23 22 21 22
57 56 51 47 48 42 40 37 36 34 38 39 51 46 25 40 52 62 65 63 66 66 65 59 56 54 51 49 46 43 44 46 48 44 42 38 33 31 28 28 30 32 33
61 57 51 44 48 48 45 40 39 37 36 42 53 56 59 60 32 41 57 64 64 67 65 65 64 61 54 52 47 43 42 42 42 40 40 35 33 36 35 33 34 35 33
68 64 55 49 46 49 46 43 46 38 32 41 45 44 53 65 72 64 24 45 69 60 60 64 70 64 57 54 51 48 46 42 39 38 38 38 41 41 37 35 38 36 32
63 63 58 52 47 47 46 43 48 41 36 30 42 54 48 73 64 79 83 56 57 69 59 67 65 69 60 57 52 53 50 43 39 40 41 42 39 35 34 38 32 25 24
58 54 51 51 48 47 46 46 48 45 41 38 36 45 56 57 50 44 41 58 66 80 73 66 72 69 61 59 52 53 49 47 48 42 41 38 36 35 38 36 28 28 25
47 50 51 53 54 51 48 48 51 48 46 43 43 40 46 71 73 64 67 78 92 75 96 75 75 68 56 52 50 51 50 47 45 43 40 39 36 37 37 32 27 25 25
49 54 57 61 58 56 51 52 55 54 51 46 47 33 28 44 61 66 59 68 90 101 92 96 77 64 51 48 49 51 48 45 44 45 43 41 40 39 34 31 28 23 24
50 57 61 64 64 57 51 51 55 51 51 53 62 69 62 56 54 61 64 75 64 73 81 77 76 64 55 55 52 49 46 44 42 42 42 42 42 39 35 33 29 25 25
41 41 36 42 55 53 48 47 46 43 39 50 54 60 69 75 69 60 63 66 68 55 52 61 63 59 58 55 53 50 48 43 42 43 43 43 40 36 35 34 31 30 26
39 35 39 40 46 48 48 48 45 38 30 30 40 45 50 54 67 65 56 51 57 58 58 53 52 52 54 52 50 47 45 40 38 39 42 41 37 34 33 33 31 30 26
42 43 41 42 43 45 49 50 46 41 37 41 43 45 46 52 57 61 57 47 43 55 63 57 57 48 55 52 48 44 42 36 38 40 38 37 35 34 32 29 25 28 30
42 36 41 45 46 45 47 46 45 42 42 45 42 38 42 47 48 60 55 47 42 38 53 60 59 56 51 47 46 45 40 35 31 33 35 35 33 30 28 27 29 31 32
28 28 28 33 39 41 38 39 39 40 45 35 36 40 49 49 51 54 64 53 51 37 52 60 57 49 46 45 41 38 37 34 35 30 30 33 32 32 33 33 35 35 32
Wind_Direction_850mb
262 252 254 255 268 272 272 264 270 273 245 223 225 222 211 213 219 222 223 224 217 221 230 223 214 215 229 232 246 250 246 264 272 285 302 300 304 321 322 325 312 269 271
268 268 266 264 261 273 274 267 263 254 241 234 229 219 214 217 218 221 222 226 216 224 233 231 228 227 237 235 244 257 266 269 270 272 279 290 297 298 296 294 294 287 279
281 303 291 287 269 268 275 274 261 235 275 237 230 227 220 212 220 228 226 222 222 232 233 241 235 236 242 246 250 257 263 273 270 274 282 286 292 295 291 286 283 281 280
247 299 283 276 281 266 270 269 264 253 240 246 233 228 227 224 229 234 232 229 228 231 228 238 238 246 247 250 258 265 267 270 271 275 281 287 291 296 293 296 291 287 285
257 257 286 280 275 273 263 265 262 257 246 239 240 231 230 228 228 236 232 230 228 231 233 239 241 241 246 257 263 269 276 271 274 273 282 285 286 290 293 293 292 292 292
251 256 271 276 269 272 264 266 265 262 254 241 238 235 226 226 246 237 234 232 230 234 238 244 247 251 259 264 264 267 269 270 270 276 283 282 288 290 290 289 291 293 296
6 352 316 297 274 263 257 255 259 259 257 252 243 236 228 234 240 231 233 236 235 236 241 246 252 252 260 261 264 268 271 269 274 279 279 280 283 285 281 285 285 285 288
338 334 332 330 298 279 263 256 256 257 255 255 252 243 235 231 233 227 235 238 240 241 241 245 252 254 255 256 261 267 267 277 277 275 278 277 277 280 283 284 287 285 284
324 322 329 322 322 312 288 266 255 254 256 249 253 247 238 235 232 229 233 235 238 238 239 242 247 251 254 250 255 262 268 273 274 272 273 270 273 276 277 285 291 288 285
308 313 310 314 314 309 311 296 270 254 251 258 252 251 245 240 237 234 235 242 240 242 245 247 248 250 251 254 254 259 266 276 271 266 266 264 266 272 284 290 289 282 278
290 293 298 291 299 306 304 309 294 261 249 244 248 250 248 245 238 231 231 236 241 244 246 246 247 248 248 255 259 262 268 271 256 258 255 260 267 279 288 289 283 275 269
280 283 285 281 283 292 299 299 302 288 262 255 256 253 251 248 243 238 235 235 239 244 247 247 245 248 249 253 255 262 255 252 247 248 251 262 270 285 288 293 289 284 278
280 278 278 271 274 282 291 293 295 292 269 253 268 263 257 253 248 241 238 239 242 245 247 245 245 244 246 248 250 254 255 244 244 251 256 261 272 272 286 288 285 280 281
276 273 271 268 263 270 280 285 287 283 266 237 231 244 253 277 266 260 246 240 239 242 246 244 245 246 247 246 250 244 242 238 247 252 255 259 257 260 273 283 282 279 278
271 271 270 267 263 264 273 282 280 281 267 241 238 255 236 281 273 285 269 254 249 247 247 249 243 241 241 244 235 236 233 238 245 248 253 252 256 261 271 278 282 280 282
266 266 268 267 263 262 268 279 281 282 271 249 249 246 233 228 244 277 318 294 251 240 241 244 248 242 241 236 233 234 238 241 243 244 246 251 259 263 268 276 284 280 279
267 263 261 264 262 263 265 272 277 279 278 261 240 230 253 239 249 231 292 258 257 237 236 238 243 242 241 236 237 235 236 243 242 244 247 255 256 255 263 276 272 261 267
267 256 252 254 258 258 262 265 273 273 276 272 264 249 247 243 218 215 229 254 245 233 228 235 235 237 237 238 235 233 235 235 236 247 253 246 248 255 266 268 253 254 257
261 255 257 255 253 252 256 258 262 268 270 267 261 255 250 232 237 245 247 252 251 251 241 235 235 229 229 233 231 226 228 230 237 249 246 247 251 258 267 254 249 255 253
264 263 262 253 250 247 249 254 256 264 263 259 253 229 241 244 236 238 240 249 248 255 251 238 227 218 217 220 215 219 223 228 236 237 241 245 250 259 251 244 247 251 243
282 274 267 250 239 238 242 253 259 271 259 249 244 244 254 258 252 243 257 262 247 244 232 218 214 208 211 211 215 223 226 227 234 238 241 245 252 246 239 239 233 236 245
287 282 265 236 225 230 239 255 255 267 264 249 253 253 251 254 255 259 249 259 247 244 231 201 202 204 207 213 221 228 225 229 232 235 241 242 239 233 231 223 226 227 227
289 277 254 235 231 235 243 247 248 247 256 265 266 265 262 253 247 246 248 253 242 228 220 202 202 206 211 217 226 228 227 229 239 242 238 234 229 223 218 220 220 217 218
288 281 264 249 243 239 239 237 239 241 262 281 273 266 260 261 252 237 237 239 241 228 215 209 208 217 212 217 222 220 217 222 227 230 228 224 212 205 211 220 222 212 199
284 275 267 250 239 233 233 234 233 243 269 279 262 250 269 272 257 229 221 220 223 232 224 212 206 207 210 216 215 215 221 218 215 215 209 203 205 207 206 204 194 182 181
276 270 266 247 231 230 228 230 237 259 275 261 247 266 279 258 246 219 215 221 221 223 208 187 189 200 207 203 205 216 213 205 201 202 202 204 205 197 192 186 180 182 186